{"data":{"norad_id":48377,"epoch":"2026-09-19T10:43:22.808928Z","epoch_age_seconds":124643,"freshness":"FRESH","line1":"1 48377U 21038AA  26262.44679177 -.00000845  00000+0 -15475-4 0  9990","line2":"2 48377  53.1623 166.1501 0001506  92.5654 267.5520 15.31694687296918","mean_motion":15.31694687,"eccentricity":0.0001506,"inclination_deg":53.1623,"raan_deg":166.1501,"arg_perigee_deg":92.5654,"mean_anomaly_deg":267.552,"bstar":-1.5475e-5,"rev_number":29691,"period_min":94.013514065287,"perigee_km":469.7243897873,"apogee_km":471.78727630862,"semimajor_km":6848.892833048,"source":"CELESTRAK","updated_at":"2026-09-20T09:00:38.943288Z"}}